| time (UTC) | temp F | wind direction | speed MPH | gust MPH | rain 1hr in | rain 24hr in | rain mn in | humidity % | barometer mb |
| 20260904131233 | 49 | 248 | 0.0 | 0.0 | 0.00 | 0.00 | 0.00 | 99 | 1011.3 |
| 20260904130732 | 49 | 248 | 0.0 | 0.0 | 0.00 | 0.00 | 0.00 | 99 | 1011.3 |
| 20260904130231 | 48 | 248 | 0.0 | 0.0 | 0.00 | 0.00 | 0.00 | 99 | 1011.3 |
| 20260904125728 | 49 | 248 | 0.0 | 0.0 | 0.00 | 0.00 | 0.00 | 99 | 1011.3 |
| 20260904125224 | 49 | 249 | 0.0 | 0.0 | 0.00 | 0.00 | 0.00 | 99 | 1011.3 |
| 20260904124723 | 49 | 248 | 0.0 | 0.0 | 0.00 | 0.00 | 0.00 | 99 | 1011.3 |
| 20260904124220 | 49 | 248 | 0.0 | 0.0 | 0.00 | 0.00 | 0.00 | 99 | 1011.3 |
| 20260904123714 | 49 | 248 | 0.0 | 0.0 | 0.00 | 0.00 | 0.00 | 99 | 1011.3 |
| 20260904123210 | 49 | 248 | 0.0 | 0.0 | 0.00 | 0.00 | 0.00 | 99 | 1011.3 |
| 20260904122709 | 50 | 248 | 0.0 | 0.0 | 0.00 | 0.00 | 0.00 | 99 | 1011.3 |
| 20260904122204 | 50 | 248 | 0.0 | 0.0 | 0.00 | 0.00 | 0.00 | 99 | 1011.3 |
| 20260904121700 | 49 | 248 | 0.0 | 0.0 | 0.00 | 0.00 | 0.00 | 99 | 1011.3 |
| 20260904121155 | 49 | 248 | 0.0 | 0.0 | 0.00 | 0.00 | 0.00 | 99 | 1011.3 |
| 20260904120651 | 49 | 248 | 0.0 | 0.0 | 0.00 | 0.00 | 0.00 | 99 | 1011.3 |
| 20260904120148 | 49 | 248 | 0.0 | 0.0 | 0.00 | 0.00 | 0.00 | 99 | 1011.3 |
| 20260904115643 | 49 | 248 | 0.0 | 0.0 | 0.00 | 0.00 | 0.00 | 99 | 1011.3 |
| 20260904115137 | 49 | 248 | 0.0 | 0.0 | 0.00 | 0.00 | 0.00 | 99 | 1011.3 |
| 20260904114632 | 49 | 248 | 0.0 | 0.0 | 0.00 | 0.00 | 0.00 | 99 | 1011.3 |
| 20260904114131 | 49 | 248 | 0.0 | 0.0 | 0.00 | 0.00 | 0.00 | 99 | 1011.3 |
| 20260904113626 | 49 | 248 | 0.0 | 0.0 | 0.00 | 0.00 | 0.00 | 99 | 1011.3 |
| 20260904113125 | 49 | 248 | 0.0 | 0.0 | 0.00 | 0.00 | 0.00 | 99 | 1010.9 |
| 20260904112621 | 49 | 249 | 0.0 | 0.0 | 0.00 | 0.00 | 0.00 | 99 | 1010.9 |
| 20260904112117 | 49 | 235 | 0.0 | 0.0 | 0.00 | 0.00 | 0.00 | 99 | 1010.9 |
| 20260904111612 | 49 | 235 | 0.0 | 0.0 | 0.00 | 0.00 | 0.00 | 99 | 1010.9 |
| 20260904111108 | 48 | 234 | 0.0 | 0.0 | 0.00 | 0.00 | 0.00 | 99 | 1010.6 |
| 20260904110602 | 48 | 234 | 0.0 | 0.0 | 0.00 | 0.00 | 0.00 | 99 | 1010.6 |
| 20260904110057 | 48 | 235 | 0.0 | 0.0 | 0.00 | 0.00 | 0.00 | 99 | 1010.6 |
| 20260904105557 | 48 | 234 | 0.0 | 0.0 | 0.00 | 0.00 | 0.00 | 99 | 1010.6 |
| 20260904105052 | 48 | 235 | 0.0 | 0.0 | 0.00 | 0.00 | 0.00 | 99 | 1010.6 |
| 20260904104547 | 49 | 235 | 0.0 | 0.0 | 0.00 | 0.00 | 0.00 | 99 | 1010.6 |
| 20260904104043 | 49 | 234 | 0.0 | 0.0 | 0.00 | 0.00 | 0.00 | 99 | 1010.6 |
| 20260904103538 | 49 | 235 | 0.0 | 0.0 | 0.00 | 0.00 | 0.00 | 99 | 1010.3 |
| 20260904103035 | 49 | 234 | 0.0 | 0.0 | 0.00 | 0.00 | 0.00 | 99 | 1010.3 |
| 20260904102530 | 49 | 235 | 0.0 | 0.0 | 0.00 | 0.00 | 0.00 | 99 | 1010.3 |
| 20260904102025 | 50 | 234 | 0.0 | 0.0 | 0.00 | 0.00 | 0.00 | 99 | 1010.3 |
| 20260904101522 | 50 | 235 | 0.0 | 0.0 | 0.00 | 0.00 | 0.00 | 99 | 1009.9 |
| 20260904101017 | 50 | 234 | 0.0 | 0.0 | 0.00 | 0.00 | 0.00 | 99 | 1010.3 |
| 20260904100513 | 50 | 235 | 0.0 | 0.0 | 0.00 | 0.00 | 0.00 | 99 | 1010.3 |
| 20260904100008 | 49 | 235 | 0.0 | 0.0 | 0.00 | 0.00 | 0.00 | 99 | 1010.6 |
| 20260904095502 | 49 | 235 | 0.0 | 0.0 | 0.00 | 0.00 | 0.00 | 99 | 1010.3 |
| 20260904094957 | 49 | 235 | 0.0 | 0.0 | 0.00 | 0.00 | 0.00 | 99 | 1010.6 |
| 20260904094452 | 49 | 234 | 0.0 | 0.0 | 0.00 | 0.00 | 0.00 | 99 | 1010.3 |
| 20260904093948 | 50 | 235 | 0.0 | 0.0 | 0.00 | 0.00 | 0.00 | 99 | 1010.6 |
| 20260904093444 | 49 | 234 | 0.0 | 0.0 | 0.00 | 0.00 | 0.00 | 99 | 1010.3 |
| 20260904092939 | 49 | 234 | 0.0 | 0.0 | 0.00 | 0.00 | 0.00 | 99 | 1010.3 |
| 20260904092435 | 49 | 234 | 0.0 | 0.0 | 0.00 | 0.00 | 0.00 | 99 | 1010.3 |
| 20260904091931 | 49 | 234 | 0.0 | 0.0 | 0.00 | 0.00 | 0.00 | 99 | 1010.6 |
| 20260904091427 | 49 | 234 | 0.0 | 0.0 | 0.00 | 0.00 | 0.00 | 99 | 1010.3 |
| 20260904090921 | 50 | 234 | 0.0 | 0.0 | 0.00 | 0.00 | 0.00 | 99 | 1010.6 |
| 20260904090417 | 49 | 234 | 0.0 | 0.0 | 0.00 | 0.00 | 0.00 | 99 | 1010.6 |
| 20260904085911 | 50 | 234 | 0.0 | 0.0 | 0.00 | 0.00 | 0.00 | 99 | 1010.6 |
| 20260904085407 | 50 | 234 | 0.0 | 0.0 | 0.00 | 0.00 | 0.00 | 99 | 1010.6 |
| 20260904084901 | 50 | 234 | 0.0 | 0.0 | 0.00 | 0.00 | 0.00 | 99 | 1010.6 |
| 20260904084358 | 49 | 234 | 0.0 | 0.0 | 0.00 | 0.00 | 0.00 | 99 | 1010.6 |
| 20260904083853 | 49 | 234 | 0.0 | 0.0 | 0.00 | 0.00 | 0.00 | 99 | 1010.6 |
| 20260904083349 | 49 | 234 | 0.0 | 0.0 | 0.00 | 0.00 | 0.00 | 99 | 1010.6 |
| 20260904082845 | 49 | 234 | 0.0 | 0.0 | 0.00 | 0.00 | 0.00 | 99 | 1010.6 |
| 20260904082339 | 49 | 234 | 0.0 | 0.0 | 0.00 | 0.00 | 0.00 | 99 | 1010.6 |
| 20260904081834 | 49 | 234 | 0.0 | 0.0 | 0.00 | 0.00 | 0.00 | 99 | 1010.6 |
| 20260904081330 | 49 | 234 | 0.0 | 0.0 | 0.00 | 0.00 | 0.00 | 99 | 1010.6 |
| 20260904080827 | 49 | 234 | 0.0 | 0.0 | 0.00 | 0.00 | 0.00 | 99 | 1010.6 |
| 20260904080321 | 49 | 234 | 0.0 | 0.0 | 0.00 | 0.00 | 0.00 | 99 | 1010.9 |
| 20260904075818 | 49 | 234 | 0.0 | 0.0 | 0.00 | 0.00 | 0.00 | 99 | 1010.6 |
| 20260904075312 | 49 | 234 | 0.0 | 0.0 | 0.00 | 0.00 | 0.00 | 99 | 1010.6 |
| 20260904074811 | 49 | 236 | 0.0 | 0.0 | 0.00 | 0.00 | 0.00 | 99 | 1010.6 |
| 20260904074306 | 50 | 235 | 0.0 | 0.0 | 0.00 | 0.00 | 0.00 | 99 | 1010.6 |
| 20260904073802 | 49 | 285 | 0.0 | 0.0 | 0.00 | 0.00 | 0.00 | 99 | 1010.6 |
| 20260904073257 | 49 | 253 | 0.0 | 0.0 | 0.00 | 0.00 | 0.00 | 99 | 1010.6 |
| 20260904072754 | 49 | 278 | 0.0 | 0.0 | 0.00 | 0.00 | 0.00 | 99 | 1010.6 |
| 20260904072252 | 49 | 258 | 0.0 | 0.0 | 0.00 | 0.00 | 0.00 | 99 | 1010.6 |
| 20260904071748 | 49 | 258 | 0.0 | 0.0 | 0.00 | 0.00 | 0.00 | 99 | 1010.6 |
| 20260904071249 | 49 | 264 | 0.0 | 0.0 | 0.00 | 0.00 | 0.00 | 99 | 1010.3 |
| 20260904070743 | 49 | 250 | 0.0 | 0.0 | 0.00 | 0.00 | 0.00 | 99 | 1010.3 |
| 20260904070242 | 49 | 250 | 0.0 | 0.0 | 0.00 | 0.00 | 0.00 | 99 | 1010.6 |
| 20260904065737 | 50 | 250 | 0.0 | 0.0 | 0.00 | 0.60 | 0.60 | 99 | 1010.3 |
| 20260904065234 | 49 | 238 | 0.0 | 0.0 | 0.00 | 0.60 | 0.60 | 99 | 1010.3 |
| 20260904064733 | 50 | 237 | 0.0 | 0.0 | 0.00 | 0.60 | 0.60 | 99 | 1010.6 |
| 20260904064229 | 50 | 255 | 0.0 | 0.0 | 0.00 | 0.60 | 0.60 | 99 | 1010.3 |
| 20260904063725 | 50 | 255 | 0.0 | 0.0 | 0.00 | 0.60 | 0.60 | 99 | 1010.3 |
| 20260904063221 | 51 | 286 | 0.0 | 0.0 | 0.00 | 0.60 | 0.60 | 99 | 1010.3 |
| 20260904062717 | 51 | 287 | 0.0 | 1.0 | 0.00 | 0.60 | 0.60 | 99 | 1010.3 |
| 20260904062212 | 51 | 286 | 0.0 | 1.0 | 0.00 | 0.60 | 0.60 | 99 | 1010.3 |
| 20260904061707 | 51 | 286 | 0.0 | 1.0 | 0.00 | 0.60 | 0.60 | 99 | 1010.3 |
| 20260904061204 | 51 | 285 | 0.0 | 0.0 | 0.00 | 0.60 | 0.60 | 99 | 1010.3 |
| 20260904060700 | 51 | 285 | 2.0 | 2.0 | 0.00 | 0.60 | 0.60 | 99 | 1010.3 |
| 20260904060156 | 50 | 277 | 0.0 | 0.0 | 0.00 | 0.60 | 0.60 | 99 | 1010.3 |
| 20260904055650 | 49 | 277 | 0.0 | 0.0 | 0.00 | 0.60 | 0.60 | 99 | 1010.6 |
| 20260904055146 | 49 | 277 | 0.0 | 0.0 | 0.00 | 0.60 | 0.60 | 99 | 1010.3 |
| 20260904054641 | 49 | 277 | 0.0 | 0.0 | 0.00 | 0.60 | 0.60 | 99 | 1010.6 |
| 20260904054138 | 49 | 277 | 0.0 | 0.0 | 0.00 | 0.60 | 0.60 | 99 | 1010.3 |
| 20260904053638 | 49 | 277 | 0.0 | 0.0 | 0.00 | 0.60 | 0.60 | 99 | 1010.3 |
| 20260904053132 | 49 | 277 | 0.0 | 0.0 | 0.00 | 0.60 | 0.60 | 99 | 1010.6 |
| 20260904052629 | 49 | 277 | 0.0 | 0.0 | 0.00 | 0.60 | 0.60 | 99 | 1010.3 |
| 20260904052125 | 49 | 277 | 0.0 | 0.0 | 0.00 | 0.60 | 0.60 | 99 | 1010.6 |
| 20260904051621 | 49 | 277 | 0.0 | 0.0 | 0.00 | 0.60 | 0.60 | 99 | 1010.6 |
| 20260904051121 | 49 | 277 | 0.0 | 0.0 | 0.00 | 0.60 | 0.60 | 99 | 1010.3 |
| 20260904050616 | 49 | 277 | 0.0 | 0.0 | 0.00 | 0.60 | 0.60 | 99 | 1010.6 |
| 20260904050113 | 49 | 277 | 0.0 | 0.0 | 0.00 | 0.60 | 0.60 | 99 | 1010.6 |
| 20260904045607 | 50 | 277 | 0.0 | 0.0 | 0.00 | 0.60 | 0.60 | 99 | 1010.6 |
| 20260904045102 | 49 | 277 | 0.0 | 0.0 | 0.00 | 0.60 | 0.60 | 99 | 1010.6 |
| 20260904044557 | 49 | 277 | 0.0 | 0.0 | 0.00 | 0.60 | 0.60 | 99 | 1010.6 |
| 20260904044054 | 50 | 277 | 0.0 | 0.0 | 0.00 | 0.60 | 0.60 | 99 | 1010.6 |
| 20260904043550 | 50 | 277 | 0.0 | 0.0 | 0.00 | 0.60 | 0.60 | 99 | 1010.6 |
| 20260904043046 | 50 | 277 | 0.0 | 0.0 | 0.00 | 0.60 | 0.60 | 99 | 1010.6 |
| 20260904042542 | 50 | 277 | 0.0 | 0.0 | 0.00 | 0.60 | 0.60 | 99 | 1010.6 |
| 20260904042037 | 50 | 277 | 0.0 | 0.0 | 0.00 | 0.60 | 0.60 | 99 | 1010.6 |
| 20260904041532 | 51 | 278 | 0.0 | 0.0 | 0.00 | 0.60 | 0.60 | 99 | 1010.6 |
| 20260904041029 | 51 | 279 | 0.0 | 0.0 | 0.00 | 0.60 | 0.60 | 99 | 1010.6 |
| 20260904040528 | 51 | 275 | 0.0 | 0.0 | 0.00 | 0.60 | 0.60 | 99 | 1010.6 |
| 20260904040026 | 50 | 274 | 0.0 | 0.0 | 0.00 | 0.60 | 0.60 | 99 | 1010.3 |
| 20260904035525 | 50 | 274 | 0.0 | 0.0 | 0.00 | 0.60 | 0.60 | 99 | 1010.3 |
| 20260904035025 | 50 | 274 | 0.0 | 0.0 | 0.00 | 0.60 | 0.60 | 99 | 1010.3 |
| 20260904034520 | 51 | 274 | 0.0 | 0.0 | 0.00 | 0.60 | 0.60 | 99 | 1010.3 |
| 20260904034015 | 50 | 274 | 0.0 | 0.0 | 0.00 | 0.60 | 0.60 | 99 | 1010.3 |
| 20260904033511 | 50 | 274 | 0.0 | 0.0 | 0.00 | 0.60 | 0.60 | 99 | 1009.9 |
| 20260904033009 | 51 | 274 | 0.0 | 0.0 | 0.00 | 0.60 | 0.60 | 99 | 1010.3 |
| 20260904032503 | 51 | 274 | 0.0 | 0.0 | 0.00 | 0.60 | 0.60 | 99 | 1009.9 |
| 20260904032002 | 51 | 274 | 0.0 | 0.0 | 0.00 | 0.60 | 0.60 | 99 | 1009.9 |
| 20260904031457 | 51 | 274 | 0.0 | 0.0 | 0.00 | 0.60 | 0.60 | 99 | 1009.9 |
| 20260904030953 | 51 | 274 | 0.0 | 0.0 | 0.00 | 0.60 | 0.60 | 99 | 1009.9 |
| 20260904030449 | 51 | 274 | 0.0 | 0.0 | 0.00 | 0.60 | 0.60 | 99 | 1009.9 |
| 20260904025944 | 52 | 274 | 0.0 | 0.0 | 0.00 | 0.60 | 0.60 | 99 | 1009.9 |
| 20260904025440 | 52 | 274 | 0.0 | 0.0 | 0.00 | 0.60 | 0.60 | 99 | 1009.9 |
| 20260904024940 | 52 | 274 | 0.0 | 0.0 | 0.00 | 0.60 | 0.60 | 99 | 1009.9 |
| 20260904024435 | 52 | 274 | 0.0 | 0.0 | 0.00 | 0.60 | 0.60 | 99 | 1009.9 |
| 20260904023931 | 52 | 274 | 0.0 | 0.0 | 0.00 | 0.60 | 0.60 | 99 | 1009.6 |
| 20260904023427 | 53 | 274 | 0.0 | 0.0 | 0.00 | 0.60 | 0.60 | 99 | 1009.6 |
| 20260904022926 | 53 | 274 | 0.0 | 0.0 | 0.00 | 0.60 | 0.60 | 99 | 1009.6 |
| 20260904022423 | 53 | 274 | 0.0 | 0.0 | 0.00 | 0.60 | 0.60 | 99 | 1009.6 |
| 20260904021919 | 54 | 274 | 0.0 | 0.0 | 0.00 | 0.60 | 0.60 | 99 | 1009.6 |
| 20260904021414 | 54 | 274 | 0.0 | 0.0 | 0.00 | 0.60 | 0.60 | 99 | 1009.6 |
| 20260904020909 | 55 | 274 | 0.0 | 0.0 | 0.00 | 0.60 | 0.60 | 99 | 1009.6 |
| 20260904020405 | 55 | 274 | 0.0 | 0.0 | 0.00 | 0.60 | 0.60 | 99 | 1009.2 |
| 20260904015903 | 55 | 274 | 0.0 | 0.0 | 0.00 | 0.60 | 0.60 | 99 | 1009.6 |
| 20260904015359 | 55 | 275 | 0.0 | 0.0 | 0.00 | 0.60 | 0.60 | 99 | 1009.2 |
| 20260904014857 | 55 | 275 | 0.0 | 0.0 | 0.00 | 0.60 | 0.60 | 99 | 1009.2 |
| 20260904014352 | 56 | 275 | 0.0 | 0.0 | 0.00 | 0.60 | 0.60 | 99 | 1009.2 |
| 20260904013848 | 56 | 275 | 0.0 | 0.0 | 0.00 | 0.60 | 0.60 | 99 | 1009.2 |
| 20260904013344 | 56 | 275 | 0.0 | 0.0 | 0.00 | 0.60 | 0.60 | 99 | 1009.2 |
| 20260904012840 | 56 | 275 | 0.0 | 0.0 | 0.00 | 0.60 | 0.60 | 99 | 1009.2 |
| 20260904012334 | 57 | 274 | 0.0 | 0.0 | 0.00 | 0.60 | 0.60 | 99 | 1009.2 |
| 20260904011833 | 57 | 274 | 0.0 | 0.0 | 0.00 | 0.60 | 0.60 | 99 | 1009.2 |
| 20260904011329 | 57 | 275 | 0.0 | 0.0 | 0.00 | 0.60 | 0.60 | 99 | 1009.2 |
| 20260904010823 | 58 | 275 | 0.0 | 0.0 | 0.00 | 0.60 | 0.60 | 99 | 1008.9 |
| 20260904010321 | 57 | 275 | 0.0 | 0.0 | 0.00 | 0.60 | 0.60 | 99 | 1009.2 |
| 20260904005815 | 57 | 276 | 0.0 | 0.0 | 0.00 | 0.60 | 0.60 | 99 | 1009.2 |
| 20260904005311 | 57 | 264 | 0.0 | 0.0 | 0.00 | 0.60 | 0.60 | 99 | 1009.6 |
| 20260904004805 | 57 | 263 | 0.0 | 0.0 | 0.00 | 0.60 | 0.60 | 99 | 1009.2 |
| 20260904004301 | 58 | 263 | 0.0 | 0.0 | 0.00 | 0.60 | 0.60 | 99 | 1009.6 |
| 20260904003756 | 59 | 264 | 0.0 | 0.0 | 0.00 | 0.60 | 0.60 | 99 | 1009.6 |
| 20260904003253 | 58 | 263 | 0.0 | 0.0 | 0.00 | 0.60 | 0.60 | 99 | 1009.6 |
| 20260904002748 | 57 | 264 | 0.0 | 0.0 | 0.00 | 0.60 | 0.60 | 99 | 1009.6 |
| 20260904002245 | 56 | 263 | 0.0 | 1.0 | 0.00 | 0.60 | 0.60 | 99 | 1009.6 |
| 20260904001743 | 55 | 238 | 0.0 | 1.0 | 0.00 | 0.60 | 0.60 | 99 | 1009.6 |
| 20260904001238 | 55 | 273 | 0.0 | 0.0 | 0.00 | 0.60 | 0.60 | 99 | 1009.6 |
| 20260904000733 | 55 | 275 | 0.0 | 0.0 | 0.00 | 0.60 | 0.60 | 99 | 1009.6 |
| 20260904000228 | 56 | 273 | 0.0 | 1.0 | 0.00 | 0.60 | 0.60 | 99 | 1009.6 |
| 20260903235727 | 56 | 273 | 0.0 | 0.0 | 0.00 | 0.60 | 0.60 | 99 | 1009.6 |
| 20260903235224 | 56 | 272 | 0.0 | 0.0 | 0.00 | 0.60 | 0.60 | 99 | 1009.6 |
| 20260903234717 | 57 | 272 | 0.0 | 0.0 | 0.05 | 0.60 | 0.60 | 99 | 1009.6 |
| 20260903234214 | 56 | 272 | 0.0 | 0.0 | 0.12 | 0.60 | 0.60 | 99 | 1009.6 |
| 20260903233710 | 56 | 272 | 1.0 | 1.0 | 0.07 | 0.59 | 0.59 | 99 | 1009.6 |
| 20260903233206 | 56 | 279 | 1.0 | 1.0 | 0.00 | 0.58 | 0.58 | 99 | 1009.6 |
| 20260903232704 | 57 | 277 | 0.0 | 0.0 | 0.00 | 0.58 | 0.58 | 99 | 1009.6 |
| 20260903232201 | 57 | 277 | 0.0 | 0.0 | 0.00 | 0.58 | 0.58 | 99 | 1009.9 |
| 20260903231659 | 57 | 277 | 0.0 | 0.0 | 0.00 | 0.58 | 0.58 | 99 | 1009.9 |
| 20260903231154 | 57 | 277 | 0.0 | 0.0 | 0.00 | 0.58 | 0.58 | 99 | 1009.6 |
| 20260903230651 | 57 | 277 | 0.0 | 0.0 | 0.00 | 0.58 | 0.58 | 99 | 1009.6 |
| 20260903230150 | 57 | 277 | 0.0 | 0.0 | 0.00 | 0.58 | 0.58 | 99 | 1009.9 |
| 20260903225646 | 57 | 277 | 0.0 | 1.0 | 0.00 | 0.58 | 0.58 | 99 | 1009.6 |
| 20260903225143 | 57 | 276 | 0.0 | 0.0 | 0.00 | 0.58 | 0.58 | 99 | 1009.6 |
| 20260903224638 | 56 | 276 | 0.0 | 0.0 | 0.00 | 0.58 | 0.58 | 99 | 1009.9 |
| 20260903224135 | 56 | 277 | 0.0 | 1.0 | 0.00 | 0.58 | 0.58 | 99 | 1009.6 |
| 20260903223630 | 56 | 270 | 0.0 | 0.0 | 0.12 | 0.58 | 0.58 | 99 | 1009.6 |
| 20260903223128 | 57 | 266 | 0.0 | 0.0 | 0.43 | 0.58 | 0.58 | 99 | 1009.6 |
| 20260903222623 | 57 | 263 | 0.0 | 1.0 | 0.43 | 0.56 | 0.56 | 99 | 1009.6 |
| 20260903222122 | 57 | 260 | 0.0 | 0.0 | 0.07 | 0.50 | 0.50 | 99 | 1009.6 |
| 20260903221618 | 57 | 257 | 0.0 | 0.0 | 0.00 | 0.49 | 0.49 | 98 | 1009.6 |
| 20260903221115 | 58 | 258 | 0.0 | 0.0 | 0.00 | 0.49 | 0.49 | 96 | 1009.6 |
| 20260903220615 | 58 | 258 | 0.0 | 0.0 | 0.00 | 0.49 | 0.49 | 96 | 1009.2 |
| 20260903220115 | 59 | 258 | 0.0 | 0.0 | 0.00 | 0.49 | 0.49 | 96 | 1009.6 |
| 20260903215614 | 59 | 257 | 0.0 | 0.0 | 0.00 | 0.49 | 0.49 | 96 | 1009.6 |
| 20260903215108 | 59 | 258 | 0.0 | 0.0 | 0.00 | 0.49 | 0.49 | 92 | 1009.2 |
| 20260903214607 | 59 | 250 | 0.0 | 0.0 | 0.00 | 0.49 | 0.49 | 96 | 1009.6 |
| 20260903214103 | 59 | 242 | 0.0 | 0.0 | 0.00 | 0.49 | 0.49 | 97 | 1009.6 |
| 20260903213558 | 59 | 237 | 0.0 | 0.0 | 0.05 | 0.49 | 0.49 | 97 | 1009.6 |
| 20260903213054 | 59 | 263 | 0.0 | 0.0 | 0.05 | 0.49 | 0.49 | 98 | 1009.6 |
| 20260903212549 | 59 | 262 | 0.0 | 0.0 | 0.00 | 0.48 | 0.48 | 98 | 1009.2 |
| 20260903212045 | 59 | 252 | 0.0 | 0.0 | 0.00 | 0.48 | 0.48 | 96 | 1009.6 |
| 20260903211539 | 58 | 251 | 0.0 | 0.0 | 0.00 | 0.48 | 0.48 | 95 | 1009.2 |
| 20260903211036 | 59 | 251 | 0.0 | 0.0 | 0.00 | 0.48 | 0.48 | 91 | 1009.2 |
| 20260903210531 | 59 | 251 | 0.0 | 0.0 | 0.00 | 0.48 | 0.48 | 92 | 1009.6 |
| 20260903210027 | 59 | 278 | 0.0 | 0.0 | 0.00 | 0.48 | 0.48 | 95 | 1009.6 |
| 20260903205525 | 59 | 283 | 0.0 | 0.0 | 0.00 | 0.48 | 0.48 | 89 | 1009.2 |
| 20260903205020 | 59 | 326 | 0.0 | 1.0 | 0.00 | 0.48 | 0.48 | 88 | 1009.2 |
| 20260903204516 | 59 | 246 | 0.0 | 0.0 | 0.00 | 0.48 | 0.48 | 96 | 1009.2 |
| 20260903204011 | 59 | 246 | 0.0 | 0.0 | 0.00 | 0.48 | 0.48 | 94 | 1009.2 |
| 20260903203507 | 58 | 278 | 0.0 | 0.0 | 0.00 | 0.48 | 0.48 | 89 | 1009.2 |
| 20260903203007 | 58 | 298 | 1.0 | 1.0 | 0.00 | 0.48 | 0.48 | 85 | 1009.2 |
| 20260903202503 | 59 | 221 | 1.0 | 1.0 | 0.00 | 0.48 | 0.48 | 93 | 1009.2 |
| 20260903201957 | 58 | 230 | 1.0 | 1.0 | 0.00 | 0.48 | 0.48 | 91 | 1008.9 |
| 20260903201452 | 58 | 200 | 2.0 | 2.0 | 0.00 | 0.48 | 0.48 | 89 | 1009.2 |
| 20260903200951 | 58 | 237 | 0.0 | 0.0 | 0.00 | 0.48 | 0.48 | 96 | 1009.6 |
| 20260903200446 | 58 | 217 | 0.0 | 1.0 | 0.00 | 0.48 | 0.48 | 93 | 1009.6 |
| 20260903195941 | 59 | 304 | 1.0 | 1.0 | 0.00 | 0.48 | 0.48 | 91 | 1009.6 |
| 20260903195437 | 59 | 242 | 0.0 | 0.0 | 0.00 | 0.48 | 0.48 | 96 | 1009.2 |
| 20260903194932 | 58 | 226 | 0.0 | 1.0 | 0.00 | 0.48 | 0.48 | 94 | 1009.6 |
| 20260903194427 | 58 | 179 | 1.0 | 1.0 | 0.00 | 0.48 | 0.48 | 93 | 1009.2 |
| 20260903193922 | 58 | 234 | 0.0 | 0.0 | 0.00 | 0.48 | 0.48 | 98 | 1009.2 |
| 20260903193419 | 57 | 174 | 1.0 | 2.0 | 0.00 | 0.48 | 0.48 | 97 | 1009.2 |
| 20260903192914 | 57 | 230 | 0.0 | 1.0 | 0.00 | 0.48 | 0.48 | 98 | 1009.2 |
| 20260903192410 | 57 | 235 | 1.0 | 1.0 | 0.00 | 0.48 | 0.48 | 99 | 1009.2 |
| 20260903191906 | 57 | 271 | 0.0 | 0.0 | 0.07 | 0.48 | 0.48 | 99 | 1009.2 |
| 20260903191402 | 56 | 292 | 0.0 | 1.0 | 0.07 | 0.48 | 0.48 | 97 | 1009.2 |
| 20260903190901 | 57 | 260 | 0.0 | 0.0 | 0.00 | 0.47 | 0.47 | 96 | 1008.9 |
| 20260903190356 | 58 | 260 | 0.0 | 0.0 | 0.00 | 0.47 | 0.47 | 95 | 1008.9 |
| 20260903185855 | 58 | 259 | 0.0 | 0.0 | 0.00 | 0.47 | 0.47 | 91 | 1008.9 |
| 20260903185350 | 59 | 232 | 0.0 | 0.0 | 0.00 | 0.47 | 0.47 | 83 | 1008.9 |
| 20260903184846 | 59 | 235 | 0.0 | 0.0 | 0.00 | 0.47 | 0.47 | 87 | 1008.9 |
| 20260903184343 | 59 | 208 | 1.0 | 1.0 | 0.00 | 0.47 | 0.47 | 84 | 1008.9 |
| 20260903183843 | 59 | 238 | 0.0 | 0.0 | 0.00 | 0.47 | 0.47 | 93 | 1008.9 |
| 20260903183338 | 59 | 251 | 0.0 | 0.0 | 0.00 | 0.47 | 0.47 | 93 | 1008.9 |
| 20260903182837 | 59 | 264 | 0.0 | 0.0 | 0.00 | 0.47 | 0.47 | 94 | 1008.9 |
| 20260903182336 | 59 | 284 | 0.0 | 0.0 | 0.00 | 0.47 | 0.47 | 96 | 1008.9 |
| 20260903181831 | 59 | 182 | 1.0 | 2.0 | 0.00 | 0.47 | 0.47 | 93 | 1008.6 |
| 20260903181326 | 59 | 278 | 1.0 | 1.0 | 0.00 | 0.47 | 0.47 | 92 | 1008.9 |
| 20260903180825 | 59 | 342 | 1.0 | 1.0 | 0.00 | 0.47 | 0.47 | 91 | 1008.6 |
| 20260903180320 | 57 | 217 | 1.0 | 1.0 | 0.00 | 0.47 | 0.47 | 96 | 1008.6 |
| 20260903175819 | 58 | 264 | 0.0 | 0.0 | 0.00 | 0.47 | 0.47 | 99 | 1008.6 |
| 20260903175319 | 57 | 297 | 0.0 | 1.0 | 0.00 | 0.47 | 0.47 | 99 | 1008.9 |
| 20260903174814 | 57 | 220 | 0.0 | 1.0 | 0.00 | 0.47 | 0.47 | 99 | 1008.9 |
| 20260903174309 | 57 | 259 | 0.0 | 0.0 | 0.00 | 0.47 | 0.47 | 99 | 1008.6 |
| 20260903173808 | 56 | 195 | 1.0 | 2.0 | 0.00 | 0.47 | 0.47 | 97 | 1008.6 |
| 20260903173304 | 57 | 224 | 2.0 | 2.0 | 0.00 | 0.47 | 0.47 | 98 | 1008.6 |
| 20260903172800 | 57 | 185 | 2.0 | 2.0 | 0.00 | 0.47 | 0.47 | 99 | 1008.6 |
| 20260903172255 | 55 | 194 | 0.0 | 0.0 | 0.00 | 0.47 | 0.47 | 99 | 1008.2 |
| 20260903171749 | 55 | 204 | 1.0 | 1.0 | 0.00 | 0.47 | 0.47 | 99 | 1008.6 |
| 20260903171245 | 55 | 246 | 0.0 | 0.0 | 0.00 | 0.47 | 0.47 | 99 | 1008.6 |
| 20260903170744 | 54 | 251 | 0.0 | 0.0 | 0.00 | 0.47 | 0.47 | 99 | 1008.2 |
| 20260903170240 | 54 | 169 | 2.0 | 2.0 | 0.00 | 0.47 | 0.47 | 99 | 1008.2 |
| 20260903165738 | 54 | 209 | 1.0 | 1.0 | 0.00 | 0.47 | 0.47 | 99 | 1008.6 |
| 20260903165233 | 55 | 125 | 1.0 | 2.0 | 0.00 | 0.47 | 0.47 | 99 | 1008.6 |
| 20260903164727 | 55 | 207 | 1.0 | 1.0 | 0.00 | 0.47 | 0.47 | 99 | 1008.2 |
| 20260903164223 | 54 | 200 | 0.0 | 1.0 | 0.00 | 0.47 | 0.47 | 99 | 1008.2 |
| 20260903163722 | 54 | 203 | 1.0 | 2.0 | 0.00 | 0.47 | 0.47 | 99 | 1008.2 |
| 20260903163219 | 54 | 240 | 0.0 | 0.0 | 0.00 | 0.47 | 0.47 | 99 | 1008.2 |
| 20260903162715 | 54 | 229 | 1.0 | 2.0 | 0.00 | 0.47 | 0.47 | 99 | 1008.6 |
| 20260903162211 | 54 | 169 | 1.0 | 2.0 | 0.00 | 0.47 | 0.47 | 99 | 1008.2 |
| 20260903161706 | 54 | 240 | 0.0 | 0.0 | 0.00 | 0.47 | 0.47 | 99 | 1008.2 |
| 20260903161201 | 54 | 205 | 2.0 | 3.0 | 0.00 | 0.47 | 0.47 | 99 | 1008.6 |
| 20260903160657 | 54 | 233 | 0.0 | 1.0 | 0.00 | 0.47 | 0.47 | 99 | 1008.6 |
| 20260903160151 | 54 | 222 | 1.0 | 1.0 | 0.00 | 0.47 | 0.47 | 99 | 1008.6 |
| 20260903155649 | 54 | 254 | 0.0 | 0.0 | 0.00 | 0.47 | 0.47 | 99 | 1008.2 |
| 20260903155145 | 54 | 242 | 0.0 | 0.0 | 0.00 | 0.47 | 0.47 | 99 | 1008.6 |
| 20260903154641 | 54 | 241 | 0.0 | 0.0 | 0.00 | 0.47 | 0.47 | 99 | 1008.2 |
| 20260903154137 | 54 | 243 | 0.0 | 0.0 | 0.00 | 0.47 | 0.47 | 99 | 1008.2 |
| 20260903153632 | 54 | 242 | 0.0 | 0.0 | 0.00 | 0.47 | 0.47 | 99 | 1008.2 |
| 20260903153128 | 53 | 242 | 0.0 | 0.0 | 0.00 | 0.47 | 0.47 | 99 | 1008.2 |
| 20260903152624 | 53 | 242 | 0.0 | 0.0 | 0.00 | 0.47 | 0.47 | 99 | 1008.2 |
| 20260903152120 | 53 | 237 | 0.0 | 0.0 | 0.00 | 0.47 | 0.47 | 99 | 1008.2 |
| 20260903151619 | 53 | 258 | 0.0 | 0.0 | 0.00 | 0.47 | 0.47 | 99 | 1007.9 |
| 20260903151115 | 53 | 251 | 0.0 | 0.0 | 0.00 | 0.47 | 0.47 | 99 | 1007.9 |
| 20260903150614 | 53 | 251 | 0.0 | 0.0 | 0.00 | 0.47 | 0.47 | 99 | 1008.2 |
| 20260903150109 | 53 | 253 | 0.0 | 0.0 | 0.00 | 0.47 | 0.47 | 99 | 1007.9 |
| 20260903145608 | 53 | 247 | 0.0 | 0.0 | 0.00 | 0.47 | 0.47 | 99 | 1007.9 |
| 20260903145104 | 53 | 247 | 0.0 | 0.0 | 0.00 | 0.47 | 0.47 | 99 | 1008.2 |
| 20260903144603 | 53 | 246 | 0.0 | 0.0 | 0.00 | 0.47 | 0.47 | 99 | 1007.9 |
| 20260903144059 | 53 | 231 | 0.0 | 0.0 | 0.00 | 0.47 | 0.47 | 99 | 1007.9 |
| 20260903143555 | 53 | 232 | 0.0 | 0.0 | 0.00 | 0.47 | 0.47 | 99 | 1007.5 |
| 20260903143050 | 53 | 225 | 0.0 | 0.0 | 0.00 | 0.47 | 0.47 | 99 | 1007.9 |
| 20260903142545 | 53 | 231 | 0.0 | 0.0 | 0.00 | 0.47 | 0.47 | 99 | 1007.9 |
| 20260903142043 | 53 | 180 | 1.0 | 1.0 | 0.00 | 0.47 | 0.47 | 99 | 1007.9 |
| 20260903141538 | 53 | 234 | 0.0 | 1.0 | 0.00 | 0.47 | 0.47 | 99 | 1007.9 |
| 20260903141033 | 53 | 241 | 0.0 | 0.0 | 0.00 | 0.47 | 0.47 | 99 | 1007.9 |
| 20260903140529 | 52 | 205 | 1.0 | 1.0 | 0.00 | 0.47 | 0.47 | 99 | 1007.5 |
| 20260903140024 | 52 | 207 | 1.0 | 1.0 | 0.00 | 0.47 | 0.47 | 99 | 1007.5 |
| 20260903135519 | 52 | 172 | 1.0 | 1.0 | 0.00 | 0.47 | 0.47 | 99 | 1007.5 |
| 20260903135019 | 52 | 235 | 0.0 | 0.0 | 0.00 | 0.47 | 0.47 | 99 | 1007.5 |
| 20260903134519 | 52 | 251 | 0.0 | 0.0 | 0.00 | 0.47 | 0.47 | 99 | 1007.5 |
| 20260903134015 | 52 | 226 | 1.0 | 1.0 | 0.00 | 0.47 | 0.47 | 99 | 1007.5 |
| 20260903133512 | 52 | 235 | 0.0 | 0.0 | 0.00 | 0.47 | 0.47 | 99 | 1007.5 |
| 20260903133008 | 52 | 230 | 0.0 | 0.0 | 0.05 | 0.47 | 0.47 | 99 | 1007.2 |
| 20260903132502 | 52 | 256 | 0.0 | 0.0 | 0.12 | 0.47 | 0.47 | 99 | 1007.2 |
| 20260903131957 | 52 | 193 | 1.0 | 1.0 | 0.14 | 0.46 | 0.46 | 99 | 1007.5 |